Regional Weather Roundup
Issued by NWS

Home | Current Version | Previous Version | Text Only | Print | Product List | Glossary Off
Versions: 1 2 3 4 5 6 7 8 9 10 11 12 13 14 15 16 17 18 19 20 21 22 23 24 25 26 27 28 29 30 31 32 33 34 35 36 37 38 39 40 41 42 43 44 45 46 47 48 49 50

000
ASUS44 KMEG 281210
RWRTN
TENNESSEE HOURLY STATE WEATHER ROUNDUP
NATIONAL WEATHER SERVICE MEMPHIS TN
700 AM CDT MON JUL 28 2014

TNZ002-004-019-021-049-052-054-088>092-281300-
WEST TENNESSEE

CITY           SKY/WX    TMP DP  RH WIND       PRES   REMARKS
MEMPHIS INTL   PTCLDY    74  61  63 N7        30.05R
NWS MEMPHIS      N/A     72 N/A N/A MISG        N/A
JACKSON        SUNNY     69  60  73 CALM      30.04R
DYERSBURG      SUNNY     66  55  68 CALM      30.06R
UNION CITY     SUNNY     66  63  88 CALM      30.03R
PARIS          SUNNY     65  58  78 CALM      30.04R
LEXINGTON      SUNNY     68  63  83 CALM      30.02R
SAVANNAH       SUNNY     70  68  94 CALM      30.03R
$$

TNZ008-025-027-028-033-062-065-066-281300-
NORTH MIDDLE TENNESSEE

CITY           SKY/WX    TMP DP  RH WIND       PRES   REMARKS
NASHVILLE      SUNNY     70  62  76 NW6       30.00R
DICKSON        SUNNY     63  59  88 NW5       30.02R
PORTLAND       SUNNY     64  59  82 W3        29.98S
CLARKSVILLE    SUNNY     68  59  73 NW6       30.01R
LEBANON        SUNNY     67  61  81 CALM      29.98R
SMYRNA         SUNNY     67  65  93 CALM      30.00R
MURFREESBORO   SUNNY     68  62  80 NW3       29.99R
COOKEVILLE     SUNNY     68  64  88 CALM      29.98R
LIVINGSTON       N/A     66  58  75 NW6       29.98R
CROSSVILLE     LGT RAIN  66  64  93 W7        30.01R
$$

TNZ061-075-076-078-094-096-097-281300-
SOUTH MIDDLE TENNESSEE

CITY           SKY/WX    TMP DP  RH WIND       PRES   REMARKS
LEWISBURG      SUNNY     70  64  81 CALM      30.00R
FAYETTEVILLE   SUNNY     72  64  78 N8        30.00R
TULLAHOMA      SUNNY     68  63  83 N6        30.01R
WINCHESTER     SUNNY     72  68  88 CALM      30.00R
MCMINNVILLE    SUNNY     70  68  94 NW3       30.00R
COLUMBIA       SUNNY     70  63  78 CALM      30.00S
$$

TNZ017-018-042-046-047-281300-
NORTHEAST TENNESSEE

CITY           SKY/WX    TMP DP  RH WIND       PRES   REMARKS
TRI CITIES     PTSUNNY   68  64  87 W6        29.92R
ELIZABETHTON   CLOUDY    66  64  94 VRB3        N/A
$$

TNZ012-013-036-069-073-074-281300-
CENTRAL EAST TENNESSEE

CITY           SKY/WX    TMP DP  RH WIND       PRES   REMARKS
KNOXVILLE      MOSUNNY   70  68  93 SW8       29.93R
OAK RIDGE      SUNNY     71  67  87 CALM      29.95R
GATLINBURG     CLOUDY    70  66  88 W3        29.93R
MORRISTOWN     MOSUNNY   70  70 100 W8        29.94R
$$

TNZ083-085-099-281300-
SOUTHEAST TENNESSEE

CITY           SKY/WX    TMP DP  RH WIND       PRES   REMARKS
CHATTANOOGA    MOSUNNY   75  70  84 NW3       29.96R
$$

SKY/WX REPORTED AS FAIR MEANS FEW OR NO CLOUDS BELOW
12 THOUSAND FEET.



USA.gov is the U.S. government's official web portal to all federal, state and local government web resources and services.